• In Netherlands
  • List of Countries
  • For 7 days
  • Water Temperature
  • Satellite Maps
  • Weather Map
  • Weather Widgets
  • user-avatar
    Login

    Hourly Weather Korçe

    Today, 18 November, Saturday

    Time Temperature Precipitation Wind Pressure Humidity
    00:00 +6°C° 0 mm 2 mps 663 mmHg 89%
    01:00 +5°C° 0 mm 2 mps 663 mmHg 89%
    02:00 +5°C° 0 mm 2 mps 663 mmHg 89%
    03:00 +5°C° 0 mm 2 mps 662 mmHg 89%
    04:00 +5°C° 0 mm 2 mps 662 mmHg 89%
    05:00 +5°C° 0 mm 2 mps 662 mmHg 89%
    06:00 +5°C° 0 mm 2 mps 662 mmHg 89%
    07:00 +5°C° 0 mm 2 mps 662 mmHg 89%
    08:00 +7°C° 0 mm 2 mps 663 mmHg 84%
    09:00 +8°C° 0 mm 2 mps 663 mmHg 78%
    10:00 +9°C° 0 mm 2 mps 664 mmHg 73%
    11:00 +10°C° 0 mm 2 mps 663 mmHg 70%
    12:00 +11°C° 0 mm 1 mps 663 mmHg 68%
    13:00 +11°C° 0 mm 1 mps 663 mmHg 66%
    14:00 +11°C° 0 mm 1 mps 663 mmHg 70%
    15:00 +10°C° 0 mm 1 mps 663 mmHg 74%
    16:00 +9°C° 0 mm 1 mps 662 mmHg 78%
    17:00 +9°C° 0 mm 1 mps 662 mmHg 80%
    18:00 +8°C° 0 mm 1 mps 663 mmHg 82%
    19:00 +8°C° 0 mm 1 mps 663 mmHg 84%
    20:00 +7°C° 0 mm 1 mps 663 mmHg 85%
    21:00 +7°C° 0 mm 1 mps 663 mmHg 86%
    22:00 +7°C° 0 mm 1 mps 663 mmHg 87%
    23:00 +7°C° 0 mm 1 mps 663 mmHg 87%

    Tomorrow, 19 November, Sunday

    Time Temperature Precipitation Wind Pressure Humidity
    00:00 +6°C° 0 mm 1 mps 663 mmHg 88%
    01:00 +6°C° 0 mm 1 mps 663 mmHg 89%
    02:00 +6°C° 0 mm 1 mps 662 mmHg 89%
    03:00 +6°C° 0 mm 1 mps 662 mmHg 89%
    04:00 +5°C° 0 mm 1 mps 662 mmHg 90%
    05:00 +5°C° 0 mm 1 mps 662 mmHg 90%
    06:00 +5°C° 0 mm 1 mps 662 mmHg 89%
    07:00 +5°C° 0 mm 1 mps 662 mmHg 89%
    08:00 +6°C° 0 mm 1 mps 663 mmHg 83%
    09:00 +8°C° 0 mm 1 mps 663 mmHg 77%
    10:00 +9°C° 0 mm 1 mps 664 mmHg 71%
    11:00 +10°C° 0.2 mm 1 mps 664 mmHg 70%
    12:00 +9°C° 0.2 mm 2 mps 664 mmHg 69%
    13:00 +9°C° 0.2 mm 2 mps 663 mmHg 68%
    14:00 +8°C° 0.3 mm 2 mps 663 mmHg 73%
    15:00 +8°C° 0.3 mm 2 mps 663 mmHg 77%
    16:00 +7°C° 0.3 mm 2 mps 663 mmHg 82%
    17:00 +6°C° 0.1 mm 2 mps 663 mmHg 84%
    18:00 +6°C° 0.1 mm 2 mps 663 mmHg 87%
    19:00 +5°C° 0.1 mm 2 mps 663 mmHg 90%
    20:00 +5°C° 0.1 mm 2 mps 663 mmHg 90%
    21:00 +5°C° 0.1 mm 2 mps 663 mmHg 91%
    22:00 +4°C° 0.1 mm 2 mps 663 mmHg 92%
    23:00 +4°C° 0.1 mm 2 mps 663 mmHg 91%

    Day after tomorrow, 20 November, Monday

    Time Temperature Precipitation Wind Pressure Humidity
    00:00 +4°C° 0.1 mm 2 mps 663 mmHg 91%
    01:00 +4°C° 0.1 mm 2 mps 663 mmHg 91%
    02:00 +3°C° 0.2 mm 2 mps 663 mmHg 91%
    03:00 +3°C° 0.2 mm 2 mps 663 mmHg 91%
    04:00 +3°C° 0.2 mm 2 mps 663 mmHg 91%
    05:00 +3°C° 0.1 mm 2 mps 664 mmHg 91%
    06:00 +2°C° 0.1 mm 2 mps 664 mmHg 91%
    07:00 +2°C° 0.1 mm 2 mps 664 mmHg 91%
    08:00 +3°C° 0.1 mm 2 mps 665 mmHg 83%
    09:00 +3°C° 0.1 mm 3 mps 665 mmHg 74%
    10:00 +3°C° 0.1 mm 3 mps 666 mmHg 66%
    11:00 +4°C° 0 mm 3 mps 666 mmHg 63%
    12:00 +4°C° 0 mm 3 mps 666 mmHg 60%
    13:00 +4°C° 0 mm 4 mps 666 mmHg 57%
    14:00 +3°C° 0 mm 3 mps 666 mmHg 60%
    15:00 +3°C° 0 mm 3 mps 666 mmHg 62%
    16:00 +3°C° 0 mm 2 mps 666 mmHg 65%
    17:00 +2°C° 0 mm 2 mps 667 mmHg 67%
    18:00 +1°C° 0 mm 2 mps 667 mmHg 70%
    19:00 +1°C° 0 mm 1 mps 667 mmHg 72%
    20:00 +1°C° 0 mm 1 mps 668 mmHg 72%
    21:00 +1°C° 0 mm 1 mps 668 mmHg 72%
    22:00 +1°C° 0 mm 1 mps 668 mmHg 72%
    23:00 +1°C° 0 mm 1 mps 668 mmHg 72%

    21 November, Tuesday

    Time Temperature Precipitation Wind Pressure Humidity
    00:00 +1°C° 0 mm 1 mps 668 mmHg 71%
    01:00 0°C° 0 mm 1 mps 668 mmHg 71%
    02:00 +1°C° 0 mm 1 mps 668 mmHg 68%
    03:00 +1°C° 0 mm 1 mps 668 mmHg 66%
    04:00 +1°C° 0 mm 1 mps 668 mmHg 64%
    05:00 +1°C° 0 mm 1 mps 668 mmHg 61%
    06:00 +1°C° 0 mm 1 mps 668 mmHg 58%
    07:00 +1°C° 0 mm 1 mps 668 mmHg 55%
    08:00 +3°C° 0 mm 1 mps 669 mmHg 50%
    09:00 +5°C° 0 mm 1 mps 669 mmHg 45%
    10:00 +6°C° 0 mm 1 mps 670 mmHg 40%
    11:00 +7°C° 0 mm 1 mps 669 mmHg 40%
    12:00 +7°C° 0 mm 2 mps 669 mmHg 40%
    13:00 +7°C° 0 mm 2 mps 669 mmHg 40%
    14:00 +6°C° 0 mm 2 mps 669 mmHg 45%
    15:00 +6°C° 0 mm 1 mps 668 mmHg 51%
    16:00 +5°C° 0 mm 1 mps 668 mmHg 56%
    17:00 +4°C° 0 mm 1 mps 668 mmHg 56%
    18:00 +3°C° 0 mm 1 mps 668 mmHg 57%
    19:00 +2°C° 0 mm 1 mps 668 mmHg 58%
    20:00 +2°C° 0 mm 1 mps 668 mmHg 57%
    21:00 +2°C° 0 mm 1 mps 668 mmHg 55%
    22:00 +2°C° 0 mm 1 mps 668 mmHg 54%
    23:00 +2°C° 0 mm 1 mps 668 mmHg 54%

    22 November, Wednesday

    Time Temperature Precipitation Wind Pressure Humidity
    00:00 +2°C° 0 mm 1 mps 668 mmHg 53%
    01:00 +2°C° 0 mm 1 mps 668 mmHg 53%
    02:00 +2°C° 0 mm 1 mps 668 mmHg 53%
    03:00 +2°C° 0 mm 1 mps 668 mmHg 54%
    04:00 +2°C° 0 mm 1 mps 668 mmHg 54%
    05:00 +2°C° 0 mm 1 mps 668 mmHg 55%
    06:00 +2°C° 0 mm 1 mps 668 mmHg 56%
    07:00 +2°C° 0 mm 1 mps 668 mmHg 58%
    08:00 +4°C° 0 mm 1 mps 669 mmHg 53%
    09:00 +6°C° 0 mm 0 mps 670 mmHg 49%
    10:00 +8°C° 0 mm 0 mps 670 mmHg 45%
    11:00 +8°C° 0 mm 0 mps 670 mmHg 44%
    12:00 +10°C° 0 mm 1 mps 670 mmHg 44%
    13:00 +11°C° 0 mm 1 mps 670 mmHg 43%
    14:00 +10°C° 0 mm 1 mps 670 mmHg 49%
    15:00 +8°C° 0 mm 1 mps 670 mmHg 56%
    16:00 +7°C° 0 mm 1 mps 669 mmHg 62%
    17:00 +6°C° 0 mm 1 mps 669 mmHg 64%
    18:00 +5°C° 0 mm 1 mps 669 mmHg 67%
    19:00 +4°C° 0 mm 0 mps 669 mmHg 69%
    20:00 +4°C° 0 mm 1 mps 670 mmHg 68%
    21:00 +4°C° 0 mm 1 mps 670 mmHg 68%
    22:00 +4°C° 0 mm 1 mps 670 mmHg 68%
    23:00 +4°C° 0 mm 1 mps 670 mmHg 68%

    23 November, Thursday

    Time Temperature Precipitation Wind Pressure Humidity
    00:00 +4°C° 0 mm 1 mps 670 mmHg 67%
    01:00 +4°C° 0 mm 1 mps 670 mmHg 67%
    02:00 +4°C° 0 mm 1 mps 670 mmHg 67%
    03:00 +4°C° 0 mm 1 mps 670 mmHg 66%
    04:00 +4°C° 0 mm 1 mps 670 mmHg 66%
    05:00 +4°C° 0 mm 1 mps 670 mmHg 65%
    06:00 +4°C° 0 mm 1 mps 670 mmHg 64%
    07:00 +4°C° 0 mm 1 mps 670 mmHg 63%
    08:00 +6°C° 0 mm 1 mps 671 mmHg 57%
    09:00 +8°C° 0 mm 1 mps 672 mmHg 51%
    10:00 +9°C° 0 mm 0 mps 673 mmHg 45%
    11:00 +11°C° 0 mm 1 mps 673 mmHg 44%
    12:00 +12°C° 0 mm 1 mps 672 mmHg 43%
    13:00 +12°C° 0 mm 1 mps 672 mmHg 43%
    14:00 +11°C° 0 mm 1 mps 672 mmHg 49%
    15:00 +10°C° 0 mm 1 mps 672 mmHg 55%
    16:00 +8°C° 0 mm 1 mps 671 mmHg 62%
    17:00 +7°C° 0 mm 1 mps 671 mmHg 64%
    18:00 +6°C° 0 mm 1 mps 671 mmHg 66%
    19:00 +6°C° 0 mm 1 mps 671 mmHg 68%
    20:00 +5°C° 0 mm 1 mps 672 mmHg 67%
    21:00 +5°C° 0 mm 1 mps 672 mmHg 66%
    22:00 +5°C° 0 mm 1 mps 672 mmHg 65%
    23:00 +5°C° 0 mm 1 mps 672 mmHg 63%
    Show more